Tracking 19794 objects as of 22-Jul-2019
HD Live streaming from Space Station
objects crossing your sky now

CZ-4 DEB

Track CZ-4 DEB now!
10-day predictions


NORAD ID: 26241
Int'l Code: 1999-057EF
Perigee: 711.9 km
Apogee: 871.1 km
Inclination: 98.7 °
Period: 100.5 minutes
Semi major axis: 7162 km
RCS: 0.049 m2 (small)
Launch date: October 14, 1999
Source: People's Republic of China (PRC)
Launch site: Taiyaun Space Center, China (TSC)

Note: This is SATELLITE DEBRIS
aabbcc
Your satellite tracking list
Your tracking list is empty




NASA's NSSDC Master Catalog

Two Line Element Set (TLE):
1 26241U 99057EF  19202.79765767  .00000013  00000-0  20619-4 0  9999
2 26241  98.6604 142.2348 0111114 233.1724 179.3982 14.32207744 10403
Source of the keplerian elements: AFSPC